owner,sensor,date,latitude,longitude,vertical_datum,sea_water_temperature,qcFlag 
WAVCIS,ioos:station:WAVCIS:CSI09:1,2009-05-01T00:00:00Z,29.1015,-89.9782,0.0,-18.13,11144222 
WAVCIS,ioos:station:WAVCIS:CSI09:1,2009-05-01T01:00:00Z,29.1015,-89.9782,0.0,-16.85,11144222 
WAVCIS,ioos:station:WAVCIS:CSI09:1,2009-05-01T02:00:00Z,29.1015,-89.9782,0.0,-18.56,11144222 
WAVCIS,ioos:station:WAVCIS:CSI09:1,2009-05-01T03:00:00Z,29.1015,-89.9782,0.0,-18.94,11144222 
WAVCIS,ioos:station:WAVCIS:CSI09:1,2009-05-01T04:00:00Z,29.1015,-89.9782,0.0,-17.66,11144222 
WAVCIS,ioos:station:WAVCIS:CSI09:1,2009-05-01T05:00:00Z,29.1015,-89.9782,0.0,-19.46,11144222 
WAVCIS,ioos:station:WAVCIS:CSI09:1,2009-05-01T06:00:00Z,29.1015,-89.9782,0.0,-18.54,11144222 
WAVCIS,ioos:station:WAVCIS:CSI09:1,2009-05-01T07:00:00Z,29.1015,-89.9782,0.0,-18.71,11144222 
WAVCIS,ioos:station:WAVCIS:CSI09:1,2009-05-01T08:00:00Z,29.1015,-89.9782,0.0,-19.22,11144222 
WAVCIS,ioos:station:WAVCIS:CSI09:1,2009-05-01T09:00:00Z,29.1015,-89.9782,0.0,-19.13,11144222 
WAVCIS,ioos:station:WAVCIS:CSI09:1,2009-05-01T10:00:00Z,29.1015,-89.9782,0.0,-18.57,11144222 
WAVCIS,ioos:station:WAVCIS:CSI09:1,2009-05-01T11:00:00Z,29.1015,-89.9782,0.0,-19.98,11144222 
WAVCIS,ioos:station:WAVCIS:CSI09:1,2009-05-01T12:00:00Z,29.1015,-89.9782,0.0,-19.33,11144222 
WAVCIS,ioos:station:WAVCIS:CSI09:1,2009-05-01T13:00:00Z,29.1015,-89.9782,0.0,-18.38,11144222 
WAVCIS,ioos:station:WAVCIS:CSI09:1,2009-05-01T14:00:00Z,29.1015,-89.9782,0.0,-19.16,11144222 
WAVCIS,ioos:station:WAVCIS:CSI09:1,2009-05-01T15:00:00Z,29.1015,-89.9782,0.0,-17.87,11144222 
WAVCIS,ioos:station:WAVCIS:CSI09:1,2009-05-01T16:00:00Z,29.1015,-89.9782,0.0,-18.92,11144222 
WAVCIS,ioos:station:WAVCIS:CSI09:1,2009-05-01T17:00:00Z,29.1015,-89.9782,0.0,-19.34,11144222 
WAVCIS,ioos:station:WAVCIS:CSI09:1,2009-05-01T18:00:00Z,29.1015,-89.9782,0.0,-19.3,11144222 
WAVCIS,ioos:station:WAVCIS:CSI09:1,2009-05-01T19:00:00Z,29.1015,-89.9782,0.0,-18.98,11144222 
WAVCIS,ioos:station:WAVCIS:CSI09:1,2009-05-01T20:00:00Z,29.1015,-89.9782,0.0,-18.98,11144222 
WAVCIS,ioos:station:WAVCIS:CSI09:1,2009-05-01T21:00:00Z,29.1015,-89.9782,0.0,-18.91,11144222 
WAVCIS,ioos:station:WAVCIS:CSI09:1,2009-05-01T22:00:00Z,29.1015,-89.9782,0.0,-18.8,11144222 
WAVCIS,ioos:station:WAVCIS:CSI09:1,2009-05-01T23:00:00Z,29.1015,-89.9782,0.0,-18.48,11144222 
WAVCIS,ioos:station:WAVCIS:CSI09:1,2009-05-02T00:00:00Z,29.1015,-89.9782,0.0,-18.91,11144222 
WAVCIS,ioos:station:WAVCIS:CSI09:1,2009-05-02T01:00:00Z,29.1015,-89.9782,0.0,-19.2,11144222 
WAVCIS,ioos:station:WAVCIS:CSI09:1,2009-05-02T02:00:00Z,29.1015,-89.9782,0.0,-19.33,11144222 
WAVCIS,ioos:station:WAVCIS:CSI09:1,2009-05-02T03:00:00Z,29.1015,-89.9782,0.0,-18.48,11144222 
WAVCIS,ioos:station:WAVCIS:CSI09:1,2009-05-02T04:00:00Z,29.1015,-89.9782,0.0,-19.16,11144222 
WAVCIS,ioos:station:WAVCIS:CSI09:1,2009-05-02T05:00:00Z,29.1015,-89.9782,0.0,-18.73,11144222 
WAVCIS,ioos:station:WAVCIS:CSI09:1,2009-05-02T06:00:00Z,29.1015,-89.9782,0.0,-18.39,11144222 
WAVCIS,ioos:station:WAVCIS:CSI09:1,2009-05-02T07:00:00Z,29.1015,-89.9782,0.0,-18.72,11144222 
WAVCIS,ioos:station:WAVCIS:CSI09:1,2009-05-02T08:00:00Z,29.1015,-89.9782,0.0,-19.43,11144222 
WAVCIS,ioos:station:WAVCIS:CSI09:1,2009-05-02T09:00:00Z,29.1015,-89.9782,0.0,-19.69,11144222 
WAVCIS,ioos:station:WAVCIS:CSI09:1,2009-05-02T10:00:00Z,29.1015,-89.9782,0.0,-19.17,11144222 
WAVCIS,ioos:station:WAVCIS:CSI09:1,2009-05-02T11:00:00Z,29.1015,-89.9782,0.0,-18.77,11144222 
WAVCIS,ioos:station:WAVCIS:CSI09:1,2009-05-02T12:00:00Z,29.1015,-89.9782,0.0,-18.77,11144222 
WAVCIS,ioos:station:WAVCIS:CSI09:1,2009-05-02T13:00:00Z,29.1015,-89.9782,0.0,-18.01,11144222 
WAVCIS,ioos:station:WAVCIS:CSI09:1,2009-05-02T14:00:00Z,29.1015,-89.9782,0.0,-19.02,11144222 
WAVCIS,ioos:station:WAVCIS:CSI09:1,2009-05-02T15:00:00Z,29.1015,-89.9782,0.0,-18.81,11144222 
WAVCIS,ioos:station:WAVCIS:CSI09:1,2009-05-02T16:00:00Z,29.1015,-89.9782,0.0,-19.43,11144222 
WAVCIS,ioos:station:WAVCIS:CSI09:1,2009-05-02T17:00:00Z,29.1015,-89.9782,0.0,-19.32,11144222 
WAVCIS,ioos:station:WAVCIS:CSI09:1,2009-05-02T18:00:00Z,29.1015,-89.9782,0.0,-18.19,11144222 
WAVCIS,ioos:station:WAVCIS:CSI09:1,2009-05-02T19:00:00Z,29.1015,-89.9782,0.0,-18.91,11144222 
WAVCIS,ioos:station:WAVCIS:CSI09:1,2009-05-02T20:00:00Z,29.1015,-89.9782,0.0,-19.19,11144222 
WAVCIS,ioos:station:WAVCIS:CSI09:1,2009-05-02T21:00:00Z,29.1015,-89.9782,0.0,-19.44,11144222 
WAVCIS,ioos:station:WAVCIS:CSI09:1,2009-05-02T22:00:00Z,29.1015,-89.9782,0.0,-19.36,11144222 
WAVCIS,ioos:station:WAVCIS:CSI09:1,2009-05-02T23:00:00Z,29.1015,-89.9782,0.0,-18.76,11144222 
WAVCIS,ioos:station:WAVCIS:CSI09:1,2009-05-03T00:00:00Z,29.1015,-89.9782,0.0,-19.01,11144222 
WAVCIS,ioos:station:WAVCIS:CSI09:1,2009-05-03T01:00:00Z,29.1015,-89.9782,0.0,-17.77,11144222 
WAVCIS,ioos:station:WAVCIS:CSI09:1,2009-05-03T02:00:00Z,29.1015,-89.9782,0.0,-19.14,11144222 
WAVCIS,ioos:station:WAVCIS:CSI09:1,2009-05-03T03:00:00Z,29.1015,-89.9782,0.0,-18.43,11144222 
WAVCIS,ioos:station:WAVCIS:CSI09:1,2009-05-03T04:00:00Z,29.1015,-89.9782,0.0,-18.65,11144222 
WAVCIS,ioos:station:WAVCIS:CSI09:1,2009-05-03T05:00:00Z,29.1015,-89.9782,0.0,-18.63,11144222 
WAVCIS,ioos:station:WAVCIS:CSI09:1,2009-05-03T06:00:00Z,29.1015,-89.9782,0.0,-18.41,11144222 
WAVCIS,ioos:station:WAVCIS:CSI09:1,2009-05-03T07:00:00Z,29.1015,-89.9782,0.0,-17.53,11144222 
WAVCIS,ioos:station:WAVCIS:CSI09:1,2009-05-03T08:00:00Z,29.1015,-89.9782,0.0,-17.81,11144222 
WAVCIS,ioos:station:WAVCIS:CSI09:1,2009-05-03T09:00:00Z,29.1015,-89.9782,0.0,-17.8,11144222 
WAVCIS,ioos:station:WAVCIS:CSI09:1,2009-05-03T10:00:00Z,29.1015,-89.9782,0.0,-16.55,11144222 
WAVCIS,ioos:station:WAVCIS:CSI09:1,2009-05-03T11:00:00Z,29.1015,-89.9782,0.0,-18.26,11144222 
WAVCIS,ioos:station:WAVCIS:CSI09:1,2009-05-03T12:00:00Z,29.1015,-89.9782,0.0,-17.65,11144222 
WAVCIS,ioos:station:WAVCIS:CSI09:1,2009-05-03T13:00:00Z,29.1015,-89.9782,0.0,-18.33,11144222 
WAVCIS,ioos:station:WAVCIS:CSI09:1,2009-05-03T14:00:00Z,29.1015,-89.9782,0.0,-17.64,11144222 
WAVCIS,ioos:station:WAVCIS:CSI09:1,2009-05-03T15:00:00Z,29.1015,-89.9782,0.0,-17.5,11144222 
WAVCIS,ioos:station:WAVCIS:CSI09:1,2009-05-03T16:00:00Z,29.1015,-89.9782,0.0,-16.97,11144222 
WAVCIS,ioos:station:WAVCIS:CSI09:1,2009-05-03T17:00:00Z,29.1015,-89.9782,0.0,-16.27,11144222 
WAVCIS,ioos:station:WAVCIS:CSI09:1,2009-05-03T18:00:00Z,29.1015,-89.9782,0.0,-16.71,11144222 
WAVCIS,ioos:station:WAVCIS:CSI09:1,2009-05-03T19:00:00Z,29.1015,-89.9782,0.0,-17.34,11144222 
WAVCIS,ioos:station:WAVCIS:CSI09:1,2009-05-03T20:00:00Z,29.1015,-89.9782,0.0,-16.84,11144222 
WAVCIS,ioos:station:WAVCIS:CSI09:1,2009-05-03T21:00:00Z,29.1015,-89.9782,0.0,-16.46,11144222 
WAVCIS,ioos:station:WAVCIS:CSI09:1,2009-05-03T22:00:00Z,29.1015,-89.9782,0.0,-16.9,11144222 
WAVCIS,ioos:station:WAVCIS:CSI09:1,2009-05-03T23:00:00Z,29.1015,-89.9782,0.0,-17.47,11144222 
WAVCIS,ioos:station:WAVCIS:CSI09:1,2009-05-04T00:00:00Z,29.1015,-89.9782,0.0,-17.24,11144222 
WAVCIS,ioos:station:WAVCIS:CSI09:1,2009-05-04T01:00:00Z,29.1015,-89.9782,0.0,-17.76,11144222 
WAVCIS,ioos:station:WAVCIS:CSI09:1,2009-05-04T02:00:00Z,29.1015,-89.9782,0.0,-16.72,11144222 
WAVCIS,ioos:station:WAVCIS:CSI09:1,2009-05-04T03:00:00Z,29.1015,-89.9782,0.0,-18.35,11144222 
WAVCIS,ioos:station:WAVCIS:CSI09:1,2009-05-04T04:00:00Z,29.1015,-89.9782,0.0,-17.83,11144222 
WAVCIS,ioos:station:WAVCIS:CSI09:1,2009-05-04T05:00:00Z,29.1015,-89.9782,0.0,-17.91,11144222 
WAVCIS,ioos:station:WAVCIS:CSI09:1,2009-05-04T06:00:00Z,29.1015,-89.9782,0.0,-18.16,11144222 
WAVCIS,ioos:station:WAVCIS:CSI09:1,2009-05-04T07:00:00Z,29.1015,-89.9782,0.0,-17.61,11144222 
WAVCIS,ioos:station:WAVCIS:CSI09:1,2009-05-04T08:00:00Z,29.1015,-89.9782,0.0,-17.83,11144222 
WAVCIS,ioos:station:WAVCIS:CSI09:1,2009-05-04T09:00:00Z,29.1015,-89.9782,0.0,-16.49,11144222 
WAVCIS,ioos:station:WAVCIS:CSI09:1,2009-05-04T10:00:00Z,29.1015,-89.9782,0.0,-17.7,11144222 
WAVCIS,ioos:station:WAVCIS:CSI09:1,2009-05-04T11:00:00Z,29.1015,-89.9782,0.0,-18.65,11144222 
WAVCIS,ioos:station:WAVCIS:CSI09:1,2009-05-04T12:00:00Z,29.1015,-89.9782,0.0,-17.58,11144222 
WAVCIS,ioos:station:WAVCIS:CSI09:1,2009-05-04T13:00:00Z,29.1015,-89.9782,0.0,-17.9,11144222 
WAVCIS,ioos:station:WAVCIS:CSI09:1,2009-05-04T14:00:00Z,29.1015,-89.9782,0.0,-17.56,11144222 
WAVCIS,ioos:station:WAVCIS:CSI09:1,2009-05-04T15:00:00Z,29.1015,-89.9782,0.0,-18.34,11144222 
WAVCIS,ioos:station:WAVCIS:CSI09:1,2009-05-04T16:00:00Z,29.1015,-89.9782,0.0,-18.98,11144222 
WAVCIS,ioos:station:WAVCIS:CSI09:1,2009-05-04T17:00:00Z,29.1015,-89.9782,0.0,-18.18,11144222 
WAVCIS,ioos:station:WAVCIS:CSI09:1,2009-05-04T18:00:00Z,29.1015,-89.9782,0.0,-18.57,11144222 
WAVCIS,ioos:station:WAVCIS:CSI09:1,2009-05-04T19:00:00Z,29.1015,-89.9782,0.0,-16.77,11144222 
WAVCIS,ioos:station:WAVCIS:CSI09:1,2009-05-04T20:00:00Z,29.1015,-89.9782,0.0,-17.16,11144222 
WAVCIS,ioos:station:WAVCIS:CSI09:1,2009-05-04T21:00:00Z,29.1015,-89.9782,0.0,-16.53,11144222 
WAVCIS,ioos:station:WAVCIS:CSI09:1,2009-05-04T22:00:00Z,29.1015,-89.9782,0.0,-17.47,11144222 
WAVCIS,ioos:station:WAVCIS:CSI09:1,2009-05-04T23:00:00Z,29.1015,-89.9782,0.0,-16.71,11144222 
WAVCIS,ioos:station:WAVCIS:CSI09:1,2009-05-05T00:00:00Z,29.1015,-89.9782,0.0,-18.6,11144222 
WAVCIS,ioos:station:WAVCIS:CSI09:1,2009-05-05T01:00:00Z,29.1015,-89.9782,0.0,-16.76,11144222 
WAVCIS,ioos:station:WAVCIS:CSI09:1,2009-05-05T02:00:00Z,29.1015,-89.9782,0.0,-18.35,11144222 
WAVCIS,ioos:station:WAVCIS:CSI09:1,2009-05-05T03:00:00Z,29.1015,-89.9782,0.0,-17.18,11144222 
WAVCIS,ioos:station:WAVCIS:CSI09:1,2009-05-05T04:00:00Z,29.1015,-89.9782,0.0,-19.41,11144222 
WAVCIS,ioos:station:WAVCIS:CSI09:1,2009-05-05T05:00:00Z,29.1015,-89.9782,0.0,-17.65,11144222 
WAVCIS,ioos:station:WAVCIS:CSI09:1,2009-05-05T06:00:00Z,29.1015,-89.9782,0.0,-16.62,11144222 
WAVCIS,ioos:station:WAVCIS:CSI09:1,2009-05-05T07:00:00Z,29.1015,-89.9782,0.0,-16.76,11144222 
WAVCIS,ioos:station:WAVCIS:CSI09:1,2009-05-05T08:00:00Z,29.1015,-89.9782,0.0,-17.65,11144222 
WAVCIS,ioos:station:WAVCIS:CSI09:1,2009-05-05T09:00:00Z,29.1015,-89.9782,0.0,-19.31,11144222 
WAVCIS,ioos:station:WAVCIS:CSI09:1,2009-05-05T10:00:00Z,29.1015,-89.9782,0.0,-17.85,11144222 
WAVCIS,ioos:station:WAVCIS:CSI09:1,2009-05-05T11:00:00Z,29.1015,-89.9782,0.0,-17.62,11144222 
WAVCIS,ioos:station:WAVCIS:CSI09:1,2009-05-05T12:00:00Z,29.1015,-89.9782,0.0,-18.87,11144222 
WAVCIS,ioos:station:WAVCIS:CSI09:1,2009-05-05T13:00:00Z,29.1015,-89.9782,0.0,-18.22,11144222 
WAVCIS,ioos:station:WAVCIS:CSI09:1,2009-05-05T14:00:00Z,29.1015,-89.9782,0.0,-16.41,11144222 
WAVCIS,ioos:station:WAVCIS:CSI09:1,2009-05-05T15:00:00Z,29.1015,-89.9782,0.0,-18.58,11144222 
WAVCIS,ioos:station:WAVCIS:CSI09:1,2009-05-05T16:00:00Z,29.1015,-89.9782,0.0,-16.82,11144222 
WAVCIS,ioos:station:WAVCIS:CSI09:1,2009-05-05T17:00:00Z,29.1015,-89.9782,0.0,-17.65,11144222 
WAVCIS,ioos:station:WAVCIS:CSI09:1,2009-05-05T18:00:00Z,29.1015,-89.9782,0.0,-16.94,11144222 
WAVCIS,ioos:station:WAVCIS:CSI09:1,2009-05-05T19:00:00Z,29.1015,-89.9782,0.0,-16.76,11144222 
WAVCIS,ioos:station:WAVCIS:CSI09:1,2009-05-05T20:00:00Z,29.1015,-89.9782,0.0,-17.12,11144222 
WAVCIS,ioos:station:WAVCIS:CSI09:1,2009-05-05T21:00:00Z,29.1015,-89.9782,0.0,-17.26,11144222 
WAVCIS,ioos:station:WAVCIS:CSI09:1,2009-05-05T22:00:00Z,29.1015,-89.9782,0.0,-16.34,11144222 
WAVCIS,ioos:station:WAVCIS:CSI09:1,2009-05-05T23:00:00Z,29.1015,-89.9782,0.0,-16.42,11144222 
WAVCIS,ioos:station:WAVCIS:CSI09:1,2009-05-06T00:00:00Z,29.1015,-89.9782,0.0,-16.96,11144222 
WAVCIS,ioos:station:WAVCIS:CSI09:1,2009-05-06T01:00:00Z,29.1015,-89.9782,0.0,-16.81,11144222 
WAVCIS,ioos:station:WAVCIS:CSI09:1,2009-05-06T02:00:00Z,29.1015,-89.9782,0.0,-16.55,11144222 
WAVCIS,ioos:station:WAVCIS:CSI09:1,2009-05-06T03:00:00Z,29.1015,-89.9782,0.0,-15.92,11144222 
WAVCIS,ioos:station:WAVCIS:CSI09:1,2009-05-06T04:00:00Z,29.1015,-89.9782,0.0,-15.84,11144222 
WAVCIS,ioos:station:WAVCIS:CSI09:1,2009-05-06T05:00:00Z,29.1015,-89.9782,0.0,-16.38,11144222 
WAVCIS,ioos:station:WAVCIS:CSI09:1,2009-05-06T06:00:00Z,29.1015,-89.9782,0.0,-18.0,11144222 
WAVCIS,ioos:station:WAVCIS:CSI09:1,2009-05-06T07:00:00Z,29.1015,-89.9782,0.0,-17.83,11144222 
WAVCIS,ioos:station:WAVCIS:CSI09:1,2009-05-06T08:00:00Z,29.1015,-89.9782,0.0,-17.27,11144222 
WAVCIS,ioos:station:WAVCIS:CSI09:1,2009-05-06T09:00:00Z,29.1015,-89.9782,0.0,-17.54,11144222 
WAVCIS,ioos:station:WAVCIS:CSI09:1,2009-05-06T10:00:00Z,29.1015,-89.9782,0.0,-17.76,11144222 
WAVCIS,ioos:station:WAVCIS:CSI09:1,2009-05-06T11:00:00Z,29.1015,-89.9782,0.0,-17.86,11144222 
WAVCIS,ioos:station:WAVCIS:CSI09:1,2009-05-06T12:00:00Z,29.1015,-89.9782,0.0,-17.99,11144222 
WAVCIS,ioos:station:WAVCIS:CSI09:1,2009-05-06T13:00:00Z,29.1015,-89.9782,0.0,-16.52,11144222 
WAVCIS,ioos:station:WAVCIS:CSI09:1,2009-05-06T14:00:00Z,29.1015,-89.9782,0.0,-18.61,11144222 
WAVCIS,ioos:station:WAVCIS:CSI09:1,2009-05-06T15:00:00Z,29.1015,-89.9782,0.0,-16.12,11144222 
WAVCIS,ioos:station:WAVCIS:CSI09:1,2009-05-06T16:00:00Z,29.1015,-89.9782,0.0,-16.93,11144222 
WAVCIS,ioos:station:WAVCIS:CSI09:1,2009-05-06T17:00:00Z,29.1015,-89.9782,0.0,-17.45,11144222 
WAVCIS,ioos:station:WAVCIS:CSI09:1,2009-05-06T18:00:00Z,29.1015,-89.9782,0.0,-16.69,11144222 
WAVCIS,ioos:station:WAVCIS:CSI09:1,2009-05-06T19:00:00Z,29.1015,-89.9782,0.0,-17.64,11144222 
WAVCIS,ioos:station:WAVCIS:CSI09:1,2009-05-06T20:00:00Z,29.1015,-89.9782,0.0,-16.94,11144222 
WAVCIS,ioos:station:WAVCIS:CSI09:1,2009-05-06T21:00:00Z,29.1015,-89.9782,0.0,-17.04,11144222 
WAVCIS,ioos:station:WAVCIS:CSI09:1,2009-05-06T22:00:00Z,29.1015,-89.9782,0.0,-17.79,11144222 
WAVCIS,ioos:station:WAVCIS:CSI09:1,2009-05-06T23:00:00Z,29.1015,-89.9782,0.0,-16.58,11144222 
WAVCIS,ioos:station:WAVCIS:CSI09:1,2009-05-07T00:00:00Z,29.1015,-89.9782,0.0,-18.14,11144222 
WAVCIS,ioos:station:WAVCIS:CSI09:1,2009-05-07T01:00:00Z,29.1015,-89.9782,0.0,-15.78,11144222 
WAVCIS,ioos:station:WAVCIS:CSI09:1,2009-05-07T02:00:00Z,29.1015,-89.9782,0.0,-17.24,11144222 
WAVCIS,ioos:station:WAVCIS:CSI09:1,2009-05-07T03:00:00Z,29.1015,-89.9782,0.0,-17.52,11144222 
WAVCIS,ioos:station:WAVCIS:CSI09:1,2009-05-07T04:00:00Z,29.1015,-89.9782,0.0,-17.3,11144222 
WAVCIS,ioos:station:WAVCIS:CSI09:1,2009-05-07T05:00:00Z,29.1015,-89.9782,0.0,-16.75,11144222 
WAVCIS,ioos:station:WAVCIS:CSI09:1,2009-05-07T06:00:00Z,29.1015,-89.9782,0.0,-18.27,11144222 
WAVCIS,ioos:station:WAVCIS:CSI09:1,2009-05-07T07:00:00Z,29.1015,-89.9782,0.0,-18.02,11144222 
WAVCIS,ioos:station:WAVCIS:CSI09:1,2009-05-07T08:00:00Z,29.1015,-89.9782,0.0,-17.28,11144222 
WAVCIS,ioos:station:WAVCIS:CSI09:1,2009-05-07T09:00:00Z,29.1015,-89.9782,0.0,-16.7,11144222 
WAVCIS,ioos:station:WAVCIS:CSI09:1,2009-05-07T10:00:00Z,29.1015,-89.9782,0.0,-17.17,11144222 
WAVCIS,ioos:station:WAVCIS:CSI09:1,2009-05-07T11:00:00Z,29.1015,-89.9782,0.0,-17.9,11144222 
WAVCIS,ioos:station:WAVCIS:CSI09:1,2009-05-07T12:00:00Z,29.1015,-89.9782,0.0,-17.64,11144222 
WAVCIS,ioos:station:WAVCIS:CSI09:1,2009-05-07T13:00:00Z,29.1015,-89.9782,0.0,-17.14,11144222 
WAVCIS,ioos:station:WAVCIS:CSI09:1,2009-05-07T14:00:00Z,29.1015,-89.9782,0.0,-18.14,11144222 
WAVCIS,ioos:station:WAVCIS:CSI09:1,2009-05-07T15:00:00Z,29.1015,-89.9782,0.0,-18.78,11144222 
WAVCIS,ioos:station:WAVCIS:CSI09:1,2009-05-07T16:00:00Z,29.1015,-89.9782,0.0,-16.85,11144222 
WAVCIS,ioos:station:WAVCIS:CSI09:1,2009-05-07T17:00:00Z,29.1015,-89.9782,0.0,-17.28,11144222 
WAVCIS,ioos:station:WAVCIS:CSI09:1,2009-05-07T18:00:00Z,29.1015,-89.9782,0.0,-17.38,11144222 
WAVCIS,ioos:station:WAVCIS:CSI09:1,2009-05-07T19:00:00Z,29.1015,-89.9782,0.0,-16.5,11144222 
WAVCIS,ioos:station:WAVCIS:CSI09:1,2009-05-07T20:00:00Z,29.1015,-89.9782,0.0,-17.32,11144222 
WAVCIS,ioos:station:WAVCIS:CSI09:1,2009-05-07T21:00:00Z,29.1015,-89.9782,0.0,-17.2,11144222 
WAVCIS,ioos:station:WAVCIS:CSI09:1,2009-05-07T22:00:00Z,29.1015,-89.9782,0.0,-17.64,11144222 
WAVCIS,ioos:station:WAVCIS:CSI09:1,2009-05-07T23:00:00Z,29.1015,-89.9782,0.0,-17.24,11144222 
WAVCIS,ioos:station:WAVCIS:CSI09:1,2009-05-08T00:00:00Z,29.1015,-89.9782,0.0,-17.59,11144222 
WAVCIS,ioos:station:WAVCIS:CSI09:1,2009-05-08T01:00:00Z,29.1015,-89.9782,0.0,-17.31,11144222 
WAVCIS,ioos:station:WAVCIS:CSI09:1,2009-05-08T02:00:00Z,29.1015,-89.9782,0.0,-17.78,11144222 
WAVCIS,ioos:station:WAVCIS:CSI09:1,2009-05-08T03:00:00Z,29.1015,-89.9782,0.0,-17.29,11144222 
WAVCIS,ioos:station:WAVCIS:CSI09:1,2009-05-08T04:00:00Z,29.1015,-89.9782,0.0,-18.12,11144222 
WAVCIS,ioos:station:WAVCIS:CSI09:1,2009-05-08T05:00:00Z,29.1015,-89.9782,0.0,-16.87,11144222 
WAVCIS,ioos:station:WAVCIS:CSI09:1,2009-05-08T06:00:00Z,29.1015,-89.9782,0.0,-16.71,11144222 
WAVCIS,ioos:station:WAVCIS:CSI09:1,2009-05-08T07:00:00Z,29.1015,-89.9782,0.0,-17.72,11144222 
WAVCIS,ioos:station:WAVCIS:CSI09:1,2009-05-08T08:00:00Z,29.1015,-89.9782,0.0,-16.4,11144222 
WAVCIS,ioos:station:WAVCIS:CSI09:1,2009-05-08T09:00:00Z,29.1015,-89.9782,0.0,-17.86,11144222 
WAVCIS,ioos:station:WAVCIS:CSI09:1,2009-05-08T10:00:00Z,29.1015,-89.9782,0.0,-17.51,11144222 
WAVCIS,ioos:station:WAVCIS:CSI09:1,2009-05-08T11:00:00Z,29.1015,-89.9782,0.0,-16.85,11144222 
WAVCIS,ioos:station:WAVCIS:CSI09:1,2009-05-08T12:00:00Z,29.1015,-89.9782,0.0,-16.47,11144222 
WAVCIS,ioos:station:WAVCIS:CSI09:1,2009-05-08T13:00:00Z,29.1015,-89.9782,0.0,-16.83,11144222 
WAVCIS,ioos:station:WAVCIS:CSI09:1,2009-05-08T14:00:00Z,29.1015,-89.9782,0.0,-18.03,11144222 
WAVCIS,ioos:station:WAVCIS:CSI09:1,2009-05-08T15:00:00Z,29.1015,-89.9782,0.0,-16.27,11144222 
WAVCIS,ioos:station:WAVCIS:CSI09:1,2009-05-08T16:00:00Z,29.1015,-89.9782,0.0,-17.31,11144222 
WAVCIS,ioos:station:WAVCIS:CSI09:1,2009-05-08T17:00:00Z,29.1015,-89.9782,0.0,-16.54,11144222 
WAVCIS,ioos:station:WAVCIS:CSI09:1,2009-05-08T18:00:00Z,29.1015,-89.9782,0.0,-17.34,11144222 
WAVCIS,ioos:station:WAVCIS:CSI09:1,2009-05-08T19:00:00Z,29.1015,-89.9782,0.0,-16.99,11144222 
WAVCIS,ioos:station:WAVCIS:CSI09:1,2009-05-08T20:00:00Z,29.1015,-89.9782,0.0,-17.21,11144222 
WAVCIS,ioos:station:WAVCIS:CSI09:1,2009-05-08T21:00:00Z,29.1015,-89.9782,0.0,-16.49,11144222 
WAVCIS,ioos:station:WAVCIS:CSI09:1,2009-05-08T22:00:00Z,29.1015,-89.9782,0.0,-16.58,11144222 
WAVCIS,ioos:station:WAVCIS:CSI09:1,2009-05-08T23:00:00Z,29.1015,-89.9782,0.0,-17.0,11144222 
WAVCIS,ioos:station:WAVCIS:CSI09:1,2009-05-09T00:00:00Z,29.1015,-89.9782,0.0,-16.77,11144222 
WAVCIS,ioos:station:WAVCIS:CSI09:1,2009-05-09T01:00:00Z,29.1015,-89.9782,0.0,-16.49,11144222 
WAVCIS,ioos:station:WAVCIS:CSI09:1,2009-05-09T02:00:00Z,29.1015,-89.9782,0.0,-16.93,11144222 
WAVCIS,ioos:station:WAVCIS:CSI09:1,2009-05-09T03:00:00Z,29.1015,-89.9782,0.0,-16.0,11144222 
WAVCIS,ioos:station:WAVCIS:CSI09:1,2009-05-09T04:00:00Z,29.1015,-89.9782,0.0,-16.4,11144222 
WAVCIS,ioos:station:WAVCIS:CSI09:1,2009-05-09T05:00:00Z,29.1015,-89.9782,0.0,-16.57,11144222 
WAVCIS,ioos:station:WAVCIS:CSI09:1,2009-05-09T06:00:00Z,29.1015,-89.9782,0.0,-16.66,11144222 
WAVCIS,ioos:station:WAVCIS:CSI09:1,2009-05-09T07:00:00Z,29.1015,-89.9782,0.0,-16.89,11144222 
WAVCIS,ioos:station:WAVCIS:CSI09:1,2009-05-09T08:00:00Z,29.1015,-89.9782,0.0,-17.18,11144222 
WAVCIS,ioos:station:WAVCIS:CSI09:1,2009-05-09T09:00:00Z,29.1015,-89.9782,0.0,-15.77,11144222 
WAVCIS,ioos:station:WAVCIS:CSI09:1,2009-05-09T10:00:00Z,29.1015,-89.9782,0.0,-16.84,11144222 
WAVCIS,ioos:station:WAVCIS:CSI09:1,2009-05-09T11:00:00Z,29.1015,-89.9782,0.0,-15.73,11144222 
WAVCIS,ioos:station:WAVCIS:CSI09:1,2009-05-09T12:00:00Z,29.1015,-89.9782,0.0,-15.72,11144222 
WAVCIS,ioos:station:WAVCIS:CSI09:1,2009-05-09T13:00:00Z,29.1015,-89.9782,0.0,-15.99,11144222 
WAVCIS,ioos:station:WAVCIS:CSI09:1,2009-05-09T14:00:00Z,29.1015,-89.9782,0.0,-16.6,11144222 
WAVCIS,ioos:station:WAVCIS:CSI09:1,2009-05-09T15:00:00Z,29.1015,-89.9782,0.0,-17.1,11144222 
WAVCIS,ioos:station:WAVCIS:CSI09:1,2009-05-09T16:00:00Z,29.1015,-89.9782,0.0,-16.56,11144222 
WAVCIS,ioos:station:WAVCIS:CSI09:1,2009-05-09T17:00:00Z,29.1015,-89.9782,0.0,-16.72,11144222 
WAVCIS,ioos:station:WAVCIS:CSI09:1,2009-05-09T18:00:00Z,29.1015,-89.9782,0.0,-16.5,11144222 
WAVCIS,ioos:station:WAVCIS:CSI09:1,2009-05-09T19:00:00Z,29.1015,-89.9782,0.0,-16.55,11144222 
WAVCIS,ioos:station:WAVCIS:CSI09:1,2009-05-09T20:00:00Z,29.1015,-89.9782,0.0,-15.67,11144222 
WAVCIS,ioos:station:WAVCIS:CSI09:1,2009-05-09T21:00:00Z,29.1015,-89.9782,0.0,-14.27,11144222 
WAVCIS,ioos:station:WAVCIS:CSI09:1,2009-05-09T22:00:00Z,29.1015,-89.9782,0.0,-13.75,11144222 
WAVCIS,ioos:station:WAVCIS:CSI09:1,2009-05-09T23:00:00Z,29.1015,-89.9782,0.0,-14.02,11144222 
WAVCIS,ioos:station:WAVCIS:CSI09:1,2009-05-10T00:00:00Z,29.1015,-89.9782,0.0,-14.55,11144222 
WAVCIS,ioos:station:WAVCIS:CSI09:1,2009-05-10T01:00:00Z,29.1015,-89.9782,0.0,-13.93,11144222 
WAVCIS,ioos:station:WAVCIS:CSI09:1,2009-05-10T02:00:00Z,29.1015,-89.9782,0.0,-14.64,11144222 
WAVCIS,ioos:station:WAVCIS:CSI09:1,2009-05-10T03:00:00Z,29.1015,-89.9782,0.0,-15.34,11144222 
WAVCIS,ioos:station:WAVCIS:CSI09:1,2009-05-10T04:00:00Z,29.1015,-89.9782,0.0,-14.29,11144222 
WAVCIS,ioos:station:WAVCIS:CSI09:1,2009-05-10T05:00:00Z,29.1015,-89.9782,0.0,-15.0,11144222 
WAVCIS,ioos:station:WAVCIS:CSI09:1,2009-05-10T06:00:00Z,29.1015,-89.9782,0.0,-14.71,11144222 
WAVCIS,ioos:station:WAVCIS:CSI09:1,2009-05-10T07:00:00Z,29.1015,-89.9782,0.0,-15.36,11144222 
WAVCIS,ioos:station:WAVCIS:CSI09:1,2009-05-10T08:00:00Z,29.1015,-89.9782,0.0,-14.42,11144222 
WAVCIS,ioos:station:WAVCIS:CSI09:1,2009-05-10T09:00:00Z,29.1015,-89.9782,0.0,-15.42,11144222 
WAVCIS,ioos:station:WAVCIS:CSI09:1,2009-05-10T10:00:00Z,29.1015,-89.9782,0.0,-15.93,11144222 
WAVCIS,ioos:station:WAVCIS:CSI09:1,2009-05-10T11:00:00Z,29.1015,-89.9782,0.0,-15.17,11144222 
WAVCIS,ioos:station:WAVCIS:CSI09:1,2009-05-10T12:00:00Z,29.1015,-89.9782,0.0,-15.09,11144222 
WAVCIS,ioos:station:WAVCIS:CSI09:1,2009-05-10T13:00:00Z,29.1015,-89.9782,0.0,-15.16,11144222 
WAVCIS,ioos:station:WAVCIS:CSI09:1,2009-05-10T14:00:00Z,29.1015,-89.9782,0.0,-14.89,11144222 
WAVCIS,ioos:station:WAVCIS:CSI09:1,2009-05-10T15:00:00Z,29.1015,-89.9782,0.0,-15.35,11144222 
WAVCIS,ioos:station:WAVCIS:CSI09:1,2009-05-10T16:00:00Z,29.1015,-89.9782,0.0,-15.52,11144222 
WAVCIS,ioos:station:WAVCIS:CSI09:1,2009-05-10T17:00:00Z,29.1015,-89.9782,0.0,-14.99,11144222 
WAVCIS,ioos:station:WAVCIS:CSI09:1,2009-05-10T18:00:00Z,29.1015,-89.9782,0.0,-14.98,11144222 
WAVCIS,ioos:station:WAVCIS:CSI09:1,2009-05-10T19:00:00Z,29.1015,-89.9782,0.0,-15.01,11144222 
WAVCIS,ioos:station:WAVCIS:CSI09:1,2009-05-10T20:00:00Z,29.1015,-89.9782,0.0,-14.91,11144222 
WAVCIS,ioos:station:WAVCIS:CSI09:1,2009-05-10T21:00:00Z,29.1015,-89.9782,0.0,-15.39,11144222 
WAVCIS,ioos:station:WAVCIS:CSI09:1,2009-05-10T22:00:00Z,29.1015,-89.9782,0.0,-15.51,11144222 
WAVCIS,ioos:station:WAVCIS:CSI09:1,2009-05-10T23:00:00Z,29.1015,-89.9782,0.0,-15.09,11144222 
WAVCIS,ioos:station:WAVCIS:CSI09:1,2009-05-11T00:00:00Z,29.1015,-89.9782,0.0,-15.49,11144222 
WAVCIS,ioos:station:WAVCIS:CSI09:1,2009-05-11T01:00:00Z,29.1015,-89.9782,0.0,-15.94,11144222 
WAVCIS,ioos:station:WAVCIS:CSI09:1,2009-05-11T02:00:00Z,29.1015,-89.9782,0.0,-15.98,11144222 
WAVCIS,ioos:station:WAVCIS:CSI09:1,2009-05-11T03:00:00Z,29.1015,-89.9782,0.0,-16.08,11144222 
WAVCIS,ioos:station:WAVCIS:CSI09:1,2009-05-11T04:00:00Z,29.1015,-89.9782,0.0,-14.92,11144222 
WAVCIS,ioos:station:WAVCIS:CSI09:1,2009-05-11T05:00:00Z,29.1015,-89.9782,0.0,-14.45,11144222 
WAVCIS,ioos:station:WAVCIS:CSI09:1,2009-05-11T06:00:00Z,29.1015,-89.9782,0.0,-14.97,11144222 
WAVCIS,ioos:station:WAVCIS:CSI09:1,2009-05-11T07:00:00Z,29.1015,-89.9782,0.0,-15.66,11144222 
WAVCIS,ioos:station:WAVCIS:CSI09:1,2009-05-11T08:00:00Z,29.1015,-89.9782,0.0,-15.45,11144222 
WAVCIS,ioos:station:WAVCIS:CSI09:1,2009-05-11T09:00:00Z,29.1015,-89.9782,0.0,-14.33,11144222 
WAVCIS,ioos:station:WAVCIS:CSI09:1,2009-05-11T10:00:00Z,29.1015,-89.9782,0.0,-13.94,11144222 
WAVCIS,ioos:station:WAVCIS:CSI09:1,2009-05-11T11:00:00Z,29.1015,-89.9782,0.0,-15.06,11144222 
WAVCIS,ioos:station:WAVCIS:CSI09:1,2009-05-11T12:00:00Z,29.1015,-89.9782,0.0,-14.94,11144222 
WAVCIS,ioos:station:WAVCIS:CSI09:1,2009-05-11T13:00:00Z,29.1015,-89.9782,0.0,-14.61,11144222 